| time (UTC) | temp C | wind direction | speed KPH | gust KPH | rain 1hr cm | rain 24hr cm | rain mn cm | humidity % | barometer mb |
| 20260510063455 | 17 | 180 | 6.4 | 14.5 | 0.00 | 0.03 | 0.03 | 68 | 1027.7 |
| 20260510053455 | 18 | 180 | 6.4 | 16.1 | 0.00 | 0.03 | 0.03 | 64 | 1027.6 |
| 20260510043454 | 18 | 180 | 6.4 | 14.5 | 0.00 | 0.03 | 0.03 | 64 | 1027.6 |
| 20260510040456 | 17 | 180 | 4.8 | 9.7 | 0.00 | 0.05 | 0.03 | 65 | 1027.9 |
| 20260510030449 | 16 | 180 | 1.6 | 14.5 | 0.00 | 0.05 | 0.03 | 68 | 1028.8 |
| 20260510013448 | 15 | 180 | 4.8 | 16.1 | 0.00 | 0.05 | 0.03 | 71 | 1029.5 |
| 20260510003449 | 15 | 180 | 4.8 | 9.7 | 0.00 | 0.05 | 0.03 | 76 | 1029.6 |
| 20260509233445 | 14 | 180 | 4.8 | 14.5 | 0.00 | 0.05 | 0.03 | 77 | 1029.5 |
| 20260509223446 | 13 | 180 | 4.8 | 12.9 | 0.00 | 0.05 | 0.03 | 82 | 1029.1 |
| 20260509213446 | 13 | 180 | 3.2 | 6.4 | 0.00 | 0.05 | 0.03 | 89 | 1028.5 |
| 20260509203446 | 12 | 180 | 3.2 | 8.0 | 0.00 | 0.05 | 0.03 | 91 | 1028.1 |
| 20260509193451 | 12 | 180 | 1.6 | 4.8 | 0.00 | 0.05 | 0.03 | 93 | 1027.3 |
| 20260509193445 | 12 | 180 | 3.2 | 8.0 | 0.00 | 0.05 | 0.03 | 93 | 1027.8 |
| 20260509180444 | 12 | 180 | 0.0 | 6.4 | 0.03 | 0.05 | 0.03 | 93 | 1027.2 |
| 20260509163444 | 12 | 180 | 0.0 | 9.7 | 0.00 | 0.05 | 0.00 | 93 | 1027.5 |
| 20260509153447 | 12 | 180 | 4.8 | 6.4 | 0.00 | 0.05 | 0.00 | 91 | 1027.6 |
| 20260509143444 | 13 | 180 | 0.0 | 4.8 | 0.00 | 0.05 | 0.00 | 90 | 1027.8 |
| 20260509140445 | 13 | 180 | 0.0 | 11.3 | 0.00 | 0.05 | 0.05 | 89 | 1027.9 |
| 20260509130443 | 13 | 180 | 4.8 | 16.1 | 0.00 | 0.05 | 0.05 | 89 | 1027.9 |
| 20260509113441 | 13 | 180 | 6.4 | 14.5 | 0.00 | 0.05 | 0.05 | 89 | 1027.7 |
| 20260509103441 | 13 | 180 | 4.8 | 9.7 | 0.00 | 0.05 | 0.05 | 87 | 1027.9 |
| 20260509093441 | 14 | 180 | 6.4 | 14.5 | 0.00 | 0.05 | 0.05 | 85 | 1027.9 |
| 20260509083442 | 15 | 180 | 6.4 | 17.7 | 0.00 | 0.05 | 0.05 | 83 | 1027.8 |
| 20260509073442 | 16 | 180 | 8.0 | 17.7 | 0.00 | 0.05 | 0.05 | 82 | 1027.2 |